Notices

What's New in latest Release from April 7th, 2021:

- Updated Glossary, including Speed of Maximum Gust, and Total Hourly Precipitation

- Updated national and regional climate services offices contacts and prices information

- Addition of station inventory lists for 1981-2010, 1971-2000, and 1961-1990 Normals.

If you haven't already, please take our survey and provide feedback about our website: https://eccc.sondage-survey.ca/f/LanguageSelection.aspx?s=442ca660-fcf1-47c0-95a9-59707d6fd709

Hourly Data Report for April 11, 2003

TORONTO CITY
ONTARIO

43°40'00.000" N
79°24'00.000" W
112.50 m
6158355
71508
XTO

Download Data

Hourly Data (April 2003)
Hourly Data Report for April 11, 2003
TIME
LST
Temp Definition
°C
Dew Point Definition
°C
Rel Hum Definition
%
Precip. Amount Definition
mm

Wind Dir Definition
10's deg

Wind Spd Definition
km/h
Visibility Definition
km
Stn Press Definition
kPa
Hmdx Definition


Wind Chill Definition


Weather Definition


00:00 3.6 -4.4 56   LegendMM LegendMM LegendMM 100.39     LegendNANA
01:00 3.5 -4.3 57   LegendMM LegendMM LegendMM 100.36     LegendNANA
02:00 4.4 -6.4 45   LegendMM LegendMM LegendMM 100.29     LegendNANA
03:00 3.7 -5.8 50   LegendMM LegendMM LegendMM 100.29     LegendNANA
04:00 3.3 -6.4 49   LegendMM LegendMM LegendMM 100.25     LegendNANA
05:00 4.4 -9.1 37   LegendMM LegendMM LegendMM 100.19     LegendNANA
06:00 4.2 -8.4 39   LegendMM LegendMM LegendMM 100.18     LegendNANA
07:00 4.7 -7.8 40   LegendMM LegendMM LegendMM 100.20     LegendNANA
08:00 6.0 -5.8 42   LegendMM LegendMM LegendMM 100.18     LegendNANA
09:00 7.9 -3.7 44   LegendMM LegendMM LegendMM 100.10     LegendNANA
10:00 9.6 -3.1 41   LegendMM LegendMM LegendMM 100.01     LegendNANA
11:00 10.0 -2.1 43   LegendMM LegendMM LegendMM 100.00     LegendNANA
12:00 11.4 -1.3 41   LegendMM LegendMM LegendMM 99.91     LegendNANA
13:00 11.9 -2.7 36   LegendMM LegendMM LegendMM 99.86     LegendNANA
14:00 12.1 -0.4 42   LegendMM LegendMM LegendMM 99.78     LegendNANA
15:00 12.2 -2.1 37   LegendMM LegendMM LegendMM 99.69     LegendNANA
16:00 12.6 -4.3 30   LegendMM LegendMM LegendMM 99.64     LegendNANA
17:00 8.7 -2.7 45   LegendMM LegendMM LegendMM 99.67     LegendNANA
18:00 8.8 -1.8 47   LegendMM LegendMM LegendMM 99.61     LegendNANA
19:00 7.7 -0.5 56   LegendMM LegendMM LegendMM 99.59     LegendNANA
20:00 6.3 -0.5 62   LegendMM LegendMM LegendMM 99.63     LegendNANA
21:00 7.4 -1.4 54   LegendMM LegendMM LegendMM 99.61     LegendNANA
22:00 6.8 -1.3 56   LegendMM LegendMM LegendMM 99.57     LegendNANA
23:00 6.5 -1.5 57   LegendMM LegendMM LegendMM 99.51     LegendNANA

Notes on Data Quality.

Legend

  • E = Estimated
  • M = Missing
  • NA = Not Available*
  • [empty] = Indicates an unobserved value
Date modified: